[[{"header":{"parameterUnit":"m.s-1","parameterCategory":1,"la1":30.2991,"la2":30.254,"lo1":-89.0895,"lo2":-89.0444,"dy":0.0017,"dx":0.0017,"nx":28,"ny":28,"refTime":"2023-06-27T21:00:00:Z","depth":0,"parameterNumber":2,"parameterNumberName":"U-component_of_WINDS"},"data":[0,0,0,0,0,0,0,0,0,0,0,0,0,0,0,0,0,0,0,0,0,0,0,0,0,0,0,0,0,0,0,0,0,0,0,0,0,0,0,0,0,0,0,0,0,0,0,0,0,0,0,0,0,0,0,0,0,0,4.231,4.2311,0,4.2394,4.2395,4.2396,4.2381,4.238,4.2378,4.2377,4.2465,4.2469,4.2473,0,0,0,0,0,0,0,0,0,0,0,0,0,4.2141,4.2144,4.231,4.2311,4.2312,4.2394,4.2395,4.2396,4.2381,4.238,4.2378,4.2376,4.2464,4.2468,4.2473,0,0,0,0,0,0,0,0,0,0,0,0,0,4.2219,4.2145,4.231,4.2315,4.2316,4.2394,4.2395,4.2397,4.2382,4.238,4.2377,4.2375,4.2463,4.2468,4.2474,4.2553,0,0,4.2491,4.2493,0,0,0,0,0,0,0,0,4.2214,4.2225,4.2313,4.2314,4.2316,4.2375,4.2368,4.2449,4.2382,4.2357,4.2377,4.2374,4.2437,4.2445,4.2465,4.2557,4.2561,4.2491,4.2495,4.2497,4.2499,0,0,0,0,0,0,0,4.2209,4.2221,4.2343,4.2314,4.2316,4.2314,4.2322,4.2383,4.2409,4.2359,4.2358,4.2368,4.2438,4.246,4.2467,4.2562,4.2491,4.2496,4.25,4.2502,4.2726,4.2729,0,0,0,0,0,0,4.2202,4.2217,4.2341,4.2346,4.2259,4.2319,4.2328,4.2358,4.2408,4.2413,4.237,4.2367,4.2452,4.2461,4.2471,4.2569,4.2497,4.2502,4.2506,4.2724,4.2727,4.273,0,0,0,0,0,0,4.2198,4.2213,4.2337,4.2281,4.2297,4.2324,4.2358,4.2361,4.2383,4.2416,4.2421,4.2388,4.245,4.2463,4.2533,4.2571,4.2505,4.251,4.2721,4.2725,4.2728,4.2764,0,0,0,0,0,0,4.2193,4.2212,4.2241,4.2282,4.23,4.2397,4.236,4.2364,4.2393,4.239,4.2434,4.244,4.2449,4.2525,4.2539,4.2578,4.2514,4.2717,4.2723,4.2727,4.276,4.2769,4.2777,0,0,0,0,0,4.2187,4.2247,4.2242,4.2257,4.2337,4.2399,4.241,4.2419,4.2396,4.2427,4.2448,4.2438,4.2565,4.2532,4.2548,4.2589,4.2715,4.2721,4.2727,4.2756,4.2767,4.2776,0,0,0,0,0,0,4.221,4.2253,4.2248,4.2323,4.2358,4.2397,4.2435,4.243,4.2473,4.2469,4.2479,4.249,4.2562,4.2582,4.2545,4.267,4.2637,4.2646,4.2654,4.2665,4.2673,4.2667,4.2519,0,0,0,0,0,4.2224,4.227,4.2305,4.2368,4.2386,4.2408,4.2435,4.244,4.2477,4.2492,4.2518,4.2555,4.2604,4.2635,4.2681,4.2763,4.2774,4.2799,4.2808,4.2814,4.2823,4.287,4.2882,4.2749,4.2749,4.2749,0,0,4.2253,4.2282,4.231,4.2374,4.2401,4.2451,4.242,4.2473,4.251,4.25,4.2568,4.2589,4.2632,4.2709,4.2744,4.2728,4.2862,4.2822,4.2827,4.2832,4.2877,4.289,4.2901,4.2753,4.2752,4.2752,0,0,4.2331,4.2357,4.2413,4.2442,4.2484,4.2499,4.2512,4.2553,4.2566,4.2635,4.2629,4.2674,4.2757,4.2788,4.2815,4.2908,4.2901,4.2923,4.2967,4.3013,4.3023,4.3033,4.3068,4.308,4.293,4.2931,4.2931,0,4.2362,4.2434,4.2443,4.2497,4.2526,4.2519,4.2578,4.2605,4.2661,4.2682,4.2663,4.2768,4.2796,4.2882,4.2905,4.2926,4.2943,4.2918,4.3021,4.3031,4.3039,4.3073,4.3086,4.2933,4.2933,4.2932,4.2932,0,4.2472,4.2522,4.2563,4.2617,4.2651,4.2707,4.2725,4.2759,4.2761,4.2778,4.285,4.2883,4.2937,4.2958,4.296,4.3045,4.3034,4.3018,4.2985,4.3054,4.3086,4.3099,4.2936,4.2936,4.2935,4.2934,0,0,4.2565,4.2625,4.2639,4.2665,4.2712,4.2752,4.2809,4.2862,4.2891,4.2931,4.298,4.3051,4.3038,4.3068,4.3074,4.3115,4.3189,4.3094,4.3096,4.3112,4.3287,4.3299,4.3313,4.3185,4.3187,4.3189,4.3284,0,4.2649,4.2748,4.2759,4.2848,4.2897,4.2892,4.2942,4.2978,4.2996,4.3041,4.3061,4.3112,4.309,4.3108,4.3148,4.3171,4.3224,4.3165,4.3232,4.3235,4.3223,4.333,4.3342,4.343,4.3296,4.3298,4.3299,0,4.2759,4.2802,4.2897,4.294,4.296,4.3005,4.3055,4.3098,4.3139,4.3149,4.3185,4.3186,4.3247,4.3212,4.3297,4.3256,4.3285,4.3301,4.3305,4.3312,4.3272,4.3341,4.3457,4.3471,4.3319,4.3317,4.3316,0,4.2821,4.2902,4.2969,4.2991,4.3042,4.3074,4.3097,4.3136,4.3168,4.3213,4.3234,4.3285,4.3313,4.3354,4.337,4.3342,4.3456,4.3421,4.3468,4.3467,4.3492,4.349,4.3616,4.3509,4.3508,4.3508,4.3508,0,4.2914,4.2972,4.2998,4.304,4.3106,4.3118,4.3184,4.3206,4.3241,4.3288,4.3287,4.3332,4.335,4.3398,4.3412,4.3482,4.3494,4.3506,4.3509,4.3506,4.3505,4.3526,4.3521,4.3512,4.3511,4.351,4.351,0,4.2993,4.3012,4.3086,4.3129,4.3142,4.3189,4.3226,4.3268,4.3286,4.3346,4.3361,4.339,4.3447,4.3467,4.3536,4.3545,4.3627,4.3624,4.3613,4.3614,4.366,4.3656,4.3804,4.3825,4.3703,4.3704,4.3705,0,4.3052,4.3097,4.3145,4.3176,4.32,4.3251,4.3284,4.3298,4.3333,4.3385,4.342,4.3477,4.3523,4.3615,4.3643,4.3696,4.3696,4.3744,4.3704,4.3701,4.3699,4.3696,4.3702,4.3752,4.3753,4.3754,4.3755,0,4.3154,4.3162,4.3209,4.326,4.3299,4.334,4.338,4.3406,4.3427,4.3466,4.3524,4.356,4.3631,4.3688,4.3744,4.3769,4.3767,4.3767,4.3781,4.378,4.3772,4.3779,4.3635,4.3764,4.3763,4.3762,4.3762,4.3761,4.3226,4.3267,4.3308,4.336,4.3392,4.343,4.3471,4.3495,4.3544,4.3603,4.3609,4.3672,4.3715,4.3789,4.3817,4.3868,4.3855,4.3874,4.388,4.3885,4.3889,4.3763,4.3878,4.3878,4.3877,4.3877,4.3877,0,4.333,4.3356,4.3405,4.3461,4.3503,4.3496,4.3541,4.3577,4.3632,4.3672,4.3718,4.3786,4.3842,4.3875,4.3932,4.3966,4.3967,4.3981,4.3979,4.3985,4.3897,4.3879,4.398,4.398,4.3979,4.3979,4.3979,4.3979,4.3389,4.3458,4.3471,4.3557,4.3584,4.3645,4.3671,4.3707,4.3739,4.3815,4.3861,4.3882,4.392,4.398,4.4032,4.404,4.4062,4.4077,4.4085,4.4002,4.3991,4.3981,4.3965,4.4082,4.4082,4.417,4.417,4.4171]},{"header":{"parameterUnit":"m.s-1","parameterCategory":1,"la1":30.2991,"la2":30.254,"lo1":-89.0895,"lo2":-89.0444,"dy":0.0017,"dx":0.0017,"nx":28,"ny":28,"refTime":"2023-06-27T21:00:00:Z","depth":0,"parameterNumber":3,"parameterNumberName":"V-component_of_WINDS"},"data":[0,0,0,0,0,0,0,0,0,0,0,0,0,0,0,0,0,0,0,0,0,0,0,0,0,0,0,0,0,0,0,0,0,0,0,0,0,0,0,0,0,0,0,0,0,0,0,0,0,0,0,0,0,0,0,0,0,0,0.2515,0.2515,0,0.248,0.248,0.2479,0.2475,0.2475,0.2476,0.2476,0.2438,0.2437,0.2436,0,0,0,0,0,0,0,0,0,0,0,0,0,0.2575,0.2574,0.2515,0.2515,0.2514,0.248,0.248,0.2479,0.2475,0.2475,0.2476,0.2476,0.2439,0.2437,0.2435,0,0,0,0,0,0,0,0,0,0,0,0,0,0.2545,0.2574,0.2515,0.2508,0.2507,0.248,0.248,0.2479,0.2475,0.2475,0.2476,0.2476,0.2439,0.2437,0.2435,0.2413,0,0,0.2429,0.2428,0,0,0,0,0,0,0,0,0.2547,0.2543,0.251,0.2509,0.2507,0.2483,0.2487,0.2457,0.2475,0.2487,0.2476,0.2477,0.2452,0.2449,0.2442,0.2411,0.2409,0.2429,0.2428,0.2427,0.2426,0,0,0,0,0,0,0,0.2549,0.2545,0.2501,0.2509,0.2508,0.2506,0.2502,0.2481,0.2467,0.2486,0.2486,0.2482,0.2452,0.2444,0.2441,0.2409,0.2429,0.2427,0.2426,0.2425,0.2355,0.2354,0,0,0,0,0,0,0.2553,0.2546,0.2502,0.25,0.2529,0.2504,0.25,0.249,0.2467,0.2465,0.2481,0.2482,0.2447,0.2443,0.2439,0.241,0.2427,0.2425,0.2424,0.2355,0.2355,0.2354,0,0,0,0,0,0,0.2554,0.2549,0.2504,0.2523,0.2517,0.2503,0.2491,0.2489,0.2481,0.2464,0.2461,0.2475,0.2447,0.2442,0.2419,0.2408,0.2424,0.2422,0.2356,0.2355,0.2354,0.2351,0,0,0,0,0,0,0.2556,0.255,0.2542,0.2523,0.2516,0.2485,0.2491,0.2488,0.2477,0.2478,0.2458,0.2455,0.2447,0.2422,0.2417,0.2406,0.2421,0.2357,0.2356,0.2354,0.2352,0.235,0.2348,0,0,0,0,0,0.2558,0.2542,0.2541,0.2536,0.2506,0.2484,0.248,0.2472,0.2477,0.2468,0.2457,0.2455,0.241,0.2419,0.2414,0.2402,0.2358,0.2356,0.2355,0.2353,0.235,0.2348,0,0,0,0,0,0,0.256,0.254,0.2539,0.2516,0.2502,0.2484,0.2473,0.247,0.2454,0.2455,0.2445,0.244,0.2417,0.2407,0.2418,0.2378,0.2384,0.2381,0.2385,0.2382,0.2381,0.2383,0.2419,0,0,0,0,0,0.2558,0.2543,0.2525,0.2507,0.25,0.2488,0.2478,0.2473,0.2457,0.2451,0.2438,0.2423,0.2405,0.2393,0.2376,0.2351,0.2345,0.234,0.2338,0.2336,0.2334,0.2318,0.2314,0.2349,0.2349,0.2349,0,0,0.2553,0.254,0.2531,0.2507,0.2496,0.2479,0.2483,0.2465,0.2452,0.2448,0.2425,0.2415,0.2397,0.2372,0.236,0.2363,0.2323,0.2334,0.2333,0.2332,0.2316,0.2312,0.231,0.2348,0.2348,0.2348,0,0,0.2536,0.2525,0.2508,0.2496,0.2478,0.247,0.2466,0.2447,0.244,0.2417,0.2413,0.2397,0.2367,0.2353,0.2343,0.2318,0.2315,0.2313,0.2303,0.2287,0.2284,0.2282,0.2271,0.2268,0.231,0.231,0.231,0,0.2532,0.2507,0.25,0.2482,0.247,0.2466,0.2448,0.2436,0.2414,0.2405,0.2409,0.237,0.2357,0.2328,0.2322,0.2314,0.2307,0.2315,0.2286,0.2283,0.2281,0.227,0.2267,0.231,0.231,0.231,0.231,0,0.2503,0.2486,0.2474,0.2452,0.2439,0.2422,0.241,0.2398,0.2393,0.2383,0.2359,0.2343,0.2322,0.2315,0.231,0.2284,0.2286,0.2288,0.2294,0.2277,0.2267,0.2264,0.2309,0.231,0.231,0.231,0,0,0.2486,0.2459,0.2455,0.2444,0.2423,0.2409,0.239,0.237,0.2359,0.2343,0.2325,0.2299,0.23,0.2288,0.2281,0.2268,0.2247,0.2271,0.227,0.2265,0.2215,0.2213,0.2209,0.2245,0.2244,0.2244,0.2216,0,0.2466,0.2433,0.2424,0.2395,0.2378,0.2373,0.2356,0.234,0.2331,0.2314,0.2302,0.2283,0.2287,0.2279,0.2265,0.2252,0.2236,0.2254,0.2227,0.2227,0.2231,0.2204,0.2203,0.2177,0.2212,0.2212,0.2211,0,0.2437,0.2421,0.239,0.237,0.2362,0.2348,0.2327,0.2311,0.2293,0.2286,0.2272,0.2266,0.2244,0.2252,0.2221,0.2233,0.2221,0.2213,0.2212,0.2208,0.2217,0.2199,0.2169,0.2165,0.2206,0.2206,0.2206,0,0.2427,0.2396,0.2374,0.2365,0.2341,0.233,0.232,0.2302,0.229,0.2271,0.2262,0.2242,0.223,0.2213,0.2201,0.2208,0.217,0.2177,0.2163,0.2163,0.2155,0.2155,0.2122,0.2149,0.2149,0.2149,0.2149,0,0.2404,0.2385,0.2368,0.2355,0.2333,0.2322,0.23,0.2289,0.2273,0.2256,0.225,0.2233,0.2219,0.22,0.2191,0.2165,0.216,0.2153,0.2151,0.2153,0.2154,0.2145,0.2146,0.2148,0.2148,0.2148,0.2149,0,0.2388,0.2377,0.2351,0.2331,0.2325,0.2309,0.2291,0.2276,0.2266,0.2243,0.2237,0.2221,0.2198,0.2185,0.2156,0.2149,0.212,0.2119,0.2127,0.2125,0.2111,0.2112,0.207,0.2063,0.2096,0.2096,0.2095,0,0.2374,0.236,0.2337,0.2325,0.2314,0.2295,0.2282,0.2271,0.2257,0.2234,0.2222,0.2199,0.218,0.2143,0.2127,0.2105,0.2102,0.2089,0.2099,0.2101,0.21,0.2101,0.2098,0.2087,0.2087,0.2087,0.2086,0,0.235,0.2344,0.2327,0.2306,0.229,0.2273,0.2256,0.2247,0.2232,0.2217,0.2193,0.2179,0.2149,0.2125,0.2101,0.2089,0.2084,0.2083,0.2078,0.208,0.2085,0.208,0.2121,0.2084,0.2084,0.2085,0.2085,0.2085,0.2334,0.232,0.2301,0.228,0.2266,0.225,0.2235,0.2222,0.2203,0.2178,0.2172,0.2147,0.2127,0.2094,0.2081,0.206,0.2062,0.2055,0.2054,0.2052,0.205,0.2089,0.2056,0.2056,0.2056,0.2056,0.2056,0,0.2308,0.2295,0.2277,0.2253,0.2236,0.2234,0.2215,0.22,0.2179,0.2161,0.2142,0.2114,0.209,0.2072,0.2048,0.2035,0.2032,0.2028,0.2029,0.2025,0.2051,0.2057,0.2031,0.2031,0.2031,0.2031,0.2031,0.2031,0.2292,0.2268,0.226,0.2228,0.2215,0.2191,0.218,0.2164,0.2149,0.2119,0.2099,0.2088,0.2069,0.2043,0.2021,0.2016,0.2006,0.2003,0.1998,0.2021,0.2024,0.2027,0.2032,0.2001,0.2001,0.1974,0.1974,0.1973]}]]